OE3APM-13 Weather Reports


Display with metric or nautical units.
time (UTC)temp
F
wind
direction
speed
MPH
gust
MPH
rain 1hr
in
rain 24hr
in
rain mn
in
humidity
%
barometer
mb
20260906193329 53 20 0.0 0.0 0.00 0.00 0.00 68 1027.4
20260906192834 53 20 0.0 0.0 0.00 0.00 0.00 68 1027.4
20260906192328 54 20 0.0 0.0 0.00 0.00 0.00 68 1027.4
20260906191829 54 20 0.0 0.0 0.00 0.00 0.00 68 1027.4
20260906191331 54 20 0.0 2.0 0.00 0.00 0.00 69 1027.6
20260906190828 55 20 0.0 2.0 0.00 0.00 0.00 66 1027.4
20260906190331 55 20 0.0 0.0 0.00 0.00 0.00 65 1027.4
20260906185829 55 19 0.0 0.0 0.00 0.00 0.00 65 1027.4
20260906185330 56 19 0.0 0.0 0.00 0.00 0.00 64 1027.2
20260906184830 56 19 0.0 0.0 0.00 0.00 0.00 63 1027.2
20260906184327 57 19 0.0 0.0 0.00 0.00 0.00 62 1027.2
20260906183826 57 19 0.0 0.0 0.00 0.00 0.00 61 1027.2
20260906183324 58 19 0.0 0.0 0.00 0.00 0.00 61 1027.2
20260906182827 58 19 0.0 2.0 0.00 0.00 0.00 60 1027.2
20260906182325 59 19 1.0 3.0 0.00 0.00 0.00 60 1027.2
20260906181822 59 19 1.0 3.0 0.00 0.00 0.00 60 1027.1
20260906181321 60 19 0.0 0.0 0.00 0.00 0.00 57 1027.2
20260906180817 61 19 0.0 0.0 0.00 0.00 0.00 56 1027.1
20260906180317 61 19 0.0 0.0 0.00 0.00 0.00 57 1027.1
20260906175819 62 19 0.0 1.0 0.00 0.00 0.00 58 1027.0
20260906175313 63 19 0.0 1.0 0.00 0.00 0.00 58 1026.9
20260906174811 63 19 1.0 3.0 0.00 0.00 0.00 56 1026.9
20260906174309 64 19 1.0 3.0 0.00 0.00 0.00 54 1026.8
20260906173809 65 19 1.0 2.0 0.00 0.00 0.00 50 1026.8
20260906173307 65 19 1.0 2.0 0.00 0.00 0.00 49 1026.8
20260906172807 66 19 1.0 2.0 0.00 0.00 0.00 51 1026.8
20260906172307 66 19 1.0 3.0 0.00 0.00 0.00 48 1026.8
20260906171807 66 19 2.0 7.0 0.00 0.00 0.00 45 1026.8
20260906171307 67 17 3.0 7.0 0.00 0.00 0.00 42 1026.8
20260906170804 67 5 4.0 7.0 0.00 0.00 0.00 41 1026.8
20260906170305 67 13 5.0 8.0 0.00 0.00 0.00 41 1026.8
20260906165803 67 26 6.0 9.0 0.00 0.00 0.00 40 1026.8
20260906165306 68 345 6.0 9.0 0.00 0.00 0.00 39 1026.8
20260906164803 68 337 5.0 7.0 0.00 0.00 0.00 39 1026.8
20260906164303 68 342 5.0 8.0 0.00 0.00 0.00 38 1026.8
20260906163805 69 343 6.0 10.0 0.00 0.00 0.00 38 1026.7
20260906163304 69 348 5.0 10.0 0.00 0.00 0.00 37 1026.6
20260906162805 69 339 5.0 9.0 0.00 0.00 0.00 37 1026.5
20260906162306 69 19 6.0 9.0 0.00 0.00 0.00 36 1026.4
20260906161757 70 24 5.0 8.0 0.00 0.00 0.00 37 1026.4
20260906161247 70 329 6.0 10.0 0.00 0.00 0.00 36 1026.4
20260906160741 70 355 7.0 10.0 0.00 0.00 0.00 35 1026.5
20260906160234 70 344 7.0 10.0 0.00 0.00 0.00 35 1026.5
20260906155732 70 325 7.0 10.0 0.00 0.00 0.00 36 1026.5
20260906155226 71 338 7.0 12.0 0.00 0.00 0.00 35 1026.5
20260906154723 71 9 7.0 12.0 0.00 0.00 0.00 35 1026.5
20260906154221 71 5 7.0 12.0 0.00 0.00 0.00 35 1026.6
20260906153721 71 325 7.0 13.0 0.00 0.00 0.00 35 1026.6
20260906153219 71 27 7.0 13.0 0.00 0.00 0.00 35 1026.7
20260906152716 71 302 7.0 12.0 0.00 0.00 0.00 35 1026.6
20260906152213 71 322 6.0 11.0 0.00 0.00 0.00 34 1026.7
20260906151711 72 337 7.0 13.0 0.00 0.00 0.00 35 1026.6
20260906151209 72 325 7.0 13.0 0.00 0.00 0.00 34 1026.7
20260906150707 72 334 5.0 13.0 0.00 0.00 0.00 35 1026.6
20260906150207 72 338 5.0 8.0 0.00 0.00 0.00 34 1026.6
20260906145706 72 288 4.0 10.0 0.00 0.00 0.00 35 1026.6
20260906145207 72 317 4.0 10.0 0.00 0.00 0.00 35 1026.7
20260906144707 72 290 5.0 10.0 0.00 0.00 0.00 36 1026.7
20260906144204 72 348 6.0 10.0 0.00 0.00 0.00 35 1026.7
20260906143703 72 311 6.0 10.0 0.00 0.00 0.00 37 1026.8
20260906143202 72 290 6.0 11.0 0.00 0.00 0.00 36 1026.9
20260906142701 72 341 6.0 11.0 0.00 0.00 0.00 37 1026.9
20260906142159 72 306 6.0 12.0 0.00 0.00 0.00 36 1026.9
20260906141646 72 318 7.0 14.0 0.00 0.00 0.00 36 1026.9
20260906141147 72 348 8.0 17.0 0.00 0.00 0.00 37 1026.8
20260906140634 72 307 8.0 17.0 0.00 0.00 0.00 37 1026.9
20260906140133 72 5 7.0 14.0 0.00 0.00 0.00 38 1026.9
20260906135630 72 345 5.0 14.0 0.00 0.00 0.00 38 1026.9
20260906135129 72 298 6.0 14.0 0.00 0.00 0.00 40 1027.0
20260906134630 72 338 8.0 14.0 0.00 0.00 0.00 38 1027.0
20260906134130 72 315 6.0 18.0 0.00 0.00 0.00 39 1027.0
20260906133631 72 303 4.0 18.0 0.00 0.00 0.00 38 1027.0
20260906133131 72 301 5.0 12.0 0.00 0.00 0.00 40 1027.0
20260906132631 72 309 6.0 12.0 0.00 0.00 0.00 41 1027.0
20260906132130 72 300 6.0 13.0 0.00 0.00 0.00 39 1027.0
20260906131632 72 325 7.0 13.0 0.00 0.00 0.00 40 1027.1
20260906131140 71 280 7.0 12.0 0.00 0.00 0.00 41 1027.0
20260906130631 71 309 8.0 12.0 0.00 0.00 0.00 41 1027.1
20260906130141 71 325 8.0 13.0 0.00 0.00 0.00 41 1027.1
20260906125632 71 291 8.0 13.0 0.00 0.00 0.00 42 1027.1
20260906125130 71 327 7.0 13.0 0.00 0.00 0.00 40 1027.1
20260906124632 71 336 6.0 12.0 0.00 0.00 0.00 42 1027.2
20260906124131 71 298 6.0 12.0 0.00 0.00 0.00 43 1027.2
20260906123630 71 262 6.0 12.0 0.00 0.00 0.00 44 1027.3
20260906123131 71 292 8.0 14.0 0.00 0.00 0.00 43 1027.4
20260906122630 71 309 9.0 15.0 0.00 0.00 0.00 45 1027.4
20260906122131 71 302 8.0 15.0 0.00 0.00 0.00 43 1027.4
20260906121631 70 268 8.0 13.0 0.00 0.00 0.00 45 1027.4
20260906121130 70 332 7.0 13.0 0.00 0.00 0.00 43 1027.4
20260906120638 71 332 7.0 16.0 0.00 0.00 0.00 44 1027.6
20260906120133 70 264 7.0 16.0 0.00 0.00 0.00 44 1027.4
20260906115631 70 317 6.0 13.0 0.00 0.00 0.00 44 1027.4
20260906115132 70 315 6.0 13.0 0.00 0.00 0.00 45 1027.4
20260906114633 70 298 6.0 13.0 0.00 0.00 0.00 46 1027.6
20260906114130 70 331 5.0 13.0 0.00 0.00 0.00 45 1027.6
20260906113630 69 327 7.0 14.0 0.00 0.00 0.00 46 1027.6
20260906113130 69 322 9.0 15.0 0.00 0.00 0.00 46 1027.7
20260906112631 69 334 8.0 15.0 0.00 0.00 0.00 46 1027.7
20260906112131 69 320 7.0 14.0 0.00 0.00 0.00 47 1027.8
20260906111631 69 329 7.0 15.0 0.00 0.00 0.00 48 1027.7
20260906111131 69 297 7.0 15.0 0.00 0.00 0.00 47 1027.8
20260906110630 69 302 6.0 12.0 0.00 0.00 0.00 46 1027.8
20260906110130 69 277 6.0 14.0 0.00 0.00 0.00 46 1027.8
20260906105631 69 246 6.0 14.0 0.00 0.00 0.00 46 1027.8
20260906105131 69 320 6.0 14.0 0.00 0.00 0.00 49 1027.8
20260906104631 68 318 6.0 14.0 0.00 0.00 0.00 50 1027.7
20260906104132 68 260 8.0 15.0 0.00 0.00 0.00 50 1027.8
20260906103632 68 281 8.0 15.0 0.00 0.00 0.00 50 1027.8
20260906103131 68 286 6.0 15.0 0.00 0.00 0.00 49 1027.9
20260906102629 68 279 7.0 15.0 0.00 0.00 0.00 52 1027.9
20260906102130 68 317 6.0 13.0 0.00 0.00 0.00 51 1028.1
20260906101632 68 317 6.0 13.0 0.00 0.00 0.00 53 1028.1
20260906101134 67 287 7.0 13.0 0.00 0.00 0.00 54 1028.2
20260906100630 67 327 6.0 12.0 0.00 0.00 0.00 53 1028.2
20260906100131 67 309 5.0 11.0 0.00 0.00 0.00 54 1028.2
20260906095632 67 280 6.0 11.0 0.00 0.00 0.00 55 1028.1
20260906095129 66 310 7.0 13.0 0.00 0.00 0.00 55 1028.1
20260906094629 66 292 7.0 13.0 0.00 0.00 0.00 58 1028.2
20260906094128 65 282 5.0 11.0 0.00 0.00 0.00 58 1028.2
20260906093628 64 316 6.0 12.0 0.00 0.00 0.00 58 1028.2
20260906093127 64 309 6.0 12.0 0.00 0.00 0.00 58 1028.3
20260906092625 64 308 6.0 14.0 0.00 0.00 0.00 58 1028.2
20260906092123 64 269 8.0 14.0 0.00 0.00 0.00 58 1028.2
20260906091624 64 329 8.0 16.0 0.00 0.00 0.00 59 1028.2
20260906091120 64 337 8.0 16.0 0.00 0.00 0.00 60 1028.3
20260906090621 64 329 6.0 15.0 0.00 0.00 0.00 59 1028.3
20260906090121 64 292 7.0 13.0 0.00 0.00 0.00 59 1028.2
20260906085620 64 296 7.0 14.0 0.00 0.00 0.00 59 1028.2
20260906085120 64 323 7.0 14.0 0.00 0.00 0.00 61 1028.2
20260906084619 64 275 6.0 13.0 0.00 0.00 0.00 60 1028.3
20260906084112 63 297 7.0 14.0 0.00 0.00 0.00 61 1028.3
20260906083609 62 312 7.0 14.0 0.00 0.00 0.00 64 1028.2
20260906083108 62 315 7.0 13.0 0.00 0.00 0.00 63 1028.2
20260906082608 63 309 7.0 14.0 0.00 0.00 0.00 62 1028.1
20260906082108 63 311 6.0 14.0 0.00 0.00 0.00 63 1028.0
20260906081609 63 296 7.0 13.0 0.00 0.00 0.00 64 1028.0
20260906081108 62 292 7.0 14.0 0.00 0.00 0.00 64 1028.0
20260906080609 62 313 7.0 14.0 0.00 0.00 0.00 66 1028.0
20260906080115 61 287 7.0 13.0 0.00 0.00 0.00 66 1028.0
20260906075609 61 306 7.0 13.0 0.00 0.00 0.00 68 1028.0
20260906075107 61 276 6.0 13.0 0.00 0.00 0.00 67 1028.0
20260906074608 60 286 5.0 11.0 0.00 0.00 0.00 68 1027.9
20260906074103 60 323 6.0 11.0 0.00 0.00 0.00 68 1027.9
20260906073603 60 292 7.0 13.0 0.00 0.00 0.00 69 1027.8
20260906073104 60 332 6.0 13.0 0.00 0.00 0.00 68 1027.8
20260906072603 60 260 5.0 9.0 0.00 0.00 0.00 71 1027.8
20260906072103 59 265 5.0 9.0 0.00 0.00 0.00 70 1027.7
20260906071605 59 331 5.0 10.0 0.00 0.00 0.00 70 1027.7
20260906071054 59 322 6.0 10.0 0.00 0.01 0.00 71 1027.6
20260906070548 58 292 6.0 11.0 0.00 0.01 0.00 70 1027.6
20260906070039 58 321 5.0 11.0 0.00 0.01 0.00 71 1027.3
20260906065541 58 324 5.0 10.0 0.00 0.01 0.00 71 1027.3
20260906065031 58 313 4.0 10.0 0.00 0.01 0.00 74 1027.3
20260906064531 57 294 4.0 10.0 0.00 0.01 0.00 74 1027.2
20260906064031 57 308 4.0 9.0 0.00 0.02 0.00 74 1027.3
20260906063530 56 226 4.0 8.0 0.00 0.02 0.00 76 1027.2
20260906063030 55 286 3.0 8.0 0.00 0.02 0.00 78 1027.2
20260906062532 55 315 3.0 7.0 0.00 0.02 0.00 79 1027.2
20260906062031 54 296 2.0 6.0 0.00 0.02 0.00 81 1027.2
20260906061530 53 294 1.0 5.0 0.00 0.02 0.00 83 1027.1
20260906061030 52 292 1.0 5.0 0.00 0.02 0.00 87 1027.0
20260906060531 51 263 1.0 3.0 0.00 0.02 0.00 91 1027.1
20260906060030 51 263 1.0 2.0 0.00 0.02 0.00 92 1027.1
20260906055532 50 259 1.0 2.0 0.00 0.02 0.00 93 1027.0
20260906055031 50 259 1.0 2.0 0.00 0.03 0.00 93 1027.0
20260906054530 49 259 0.0 0.0 0.00 0.04 0.00 93 1026.9
20260906054030 49 259 0.0 0.0 0.00 0.05 0.00 93 1026.8
20260906053532 48 259 0.0 0.0 0.00 0.06 0.00 92 1026.8
20260906053033 47 259 0.0 0.0 0.00 0.06 0.00 92 1026.8
20260906052531 47 259 0.0 0.0 0.00 0.07 0.00 91 1026.7
20260906052028 46 259 0.0 0.0 0.00 0.08 0.00 90 1026.7
20260906051517 46 259 0.0 0.0 0.00 0.08 0.00 89 1026.8
20260906051014 46 259 0.0 0.0 0.00 0.08 0.00 88 1026.7
20260906050516 46 259 0.0 0.0 0.00 0.08 0.00 87 1026.7
20260906050014 46 259 0.0 0.0 0.00 0.08 0.00 87 1026.7
20260906045514 46 259 0.0 0.0 0.00 0.08 0.00 86 1026.6
20260906045012 46 259 0.0 0.0 0.00 0.08 0.00 86 1026.6
20260906044512 46 259 0.0 0.0 0.00 0.08 0.00 85 1026.5
20260906044011 46 259 0.0 0.0 0.00 0.08 0.00 85 1026.5
20260906043511 46 259 0.0 0.0 0.00 0.08 0.00 85 1026.4
20260906043012 46 259 0.0 0.0 0.00 0.08 0.00 84 1026.3
20260906042509 47 259 0.0 0.0 0.00 0.08 0.00 85 1026.3
20260906042009 47 259 0.0 0.0 0.00 0.08 0.00 84 1026.2
20260906041506 47 259 0.0 0.0 0.00 0.08 0.00 84 1026.2
20260906041006 47 259 0.0 0.0 0.00 0.08 0.00 85 1026.2
20260906040505 47 259 0.0 0.0 0.00 0.09 0.00 84 1026.2
20260906040002 47 259 0.0 0.0 0.00 0.10 0.00 83 1026.2
20260906035502 47 259 0.0 0.0 0.00 0.10 0.00 83 1026.1
20260906035003 48 259 0.0 0.0 0.00 0.11 0.00 83 1026.1
20260906034504 48 259 0.0 0.0 0.00 0.11 0.00 83 1026.1
20260906033955 48 259 0.0 0.0 0.00 0.11 0.00 82 1026.0
20260906033454 48 259 0.0 0.0 0.00 0.11 0.00 81 1026.0
20260906032952 49 259 0.0 0.0 0.00 0.11 0.00 81 1026.1
20260906032452 49 259 0.0 0.0 0.00 0.11 0.00 81 1026.1
20260906031952 49 259 0.0 0.0 0.00 0.11 0.00 81 1026.1
20260906031452 49 259 0.0 0.0 0.00 0.11 0.00 80 1026.1
20260906030952 50 259 0.0 0.0 0.00 0.11 0.00 80 1026.0
20260906030450 50 259 0.0 0.0 0.00 0.11 0.00 79 1025.9
20260906025950 50 259 0.0 0.0 0.00 0.11 0.00 80 1025.9
20260906025452 50 259 0.0 0.0 0.00 0.11 0.00 79 1025.9
20260906024950 51 259 0.0 0.0 0.00 0.11 0.00 79 1025.9
20260906024447 51 259 0.0 0.0 0.00 0.11 0.00 78 1025.9
20260906023946 51 259 0.0 0.0 0.00 0.11 0.00 78 1025.9
20260906023444 51 259 0.0 0.0 0.00 0.11 0.00 77 1025.8
20260906022945 51 259 0.0 0.0 0.00 0.11 0.00 77 1025.7
20260906022448 51 259 0.0 0.0 0.00 0.11 0.00 77 1025.8
20260906021942 52 259 0.0 0.0 0.00 0.11 0.00 76 1025.8
20260906021444 52 259 0.0 2.0 0.00 0.11 0.00 76 1025.8
20260906020942 52 259 1.0 3.0 0.00 0.11 0.00 76 1025.7
20260906020442 52 259 1.0 3.0 0.00 0.11 0.00 75 1025.8
20260906015942 53 259 0.0 2.0 0.00 0.11 0.00 75 1025.7
20260906015441 53 255 0.0 2.0 0.00 0.11 0.00 74 1025.7
20260906014943 53 255 1.0 2.0 0.00 0.11 0.00 74 1025.7
20260906014442 53 255 1.0 2.0 0.00 0.11 0.00 74 1025.7
20260906013944 53 255 1.0 2.0 0.00 0.11 0.00 73 1025.5
20260906013441 54 255 1.0 3.0 0.00 0.11 0.00 73 1025.5
20260906012940 54 255 2.0 3.0 0.00 0.11 0.00 72 1025.4
20260906012438 54 255 1.0 3.0 0.00 0.11 0.00 72 1025.4
20260906011938 54 252 1.0 3.0 0.00 0.11 0.00 71 1025.4
20260906011436 55 252 2.0 4.0 0.00 0.11 0.00 71 1025.4
20260906010939 55 242 2.0 4.0 0.00 0.11 0.00 71 1025.4
20260906010436 55 234 2.0 3.0 0.00 0.11 0.00 71 1025.4
20260906005935 55 234 2.0 4.0 0.00 0.11 0.00 70 1025.3
20260906005434 55 227 3.0 5.0 0.00 0.11 0.00 70 1025.3
20260906004934 56 234 3.0 6.0 0.00 0.11 0.00 70 1025.3
20260906004434 56 227 3.0 6.0 0.00 0.11 0.00 69 1025.2
20260906003937 56 252 2.0 4.0 0.00 0.11 0.00 69 1025.2
20260906003433 56 265 1.0 4.0 0.00 0.11 0.00 68 1025.2
20260906002930 57 295 1.0 3.0 0.00 0.11 0.00 67 1025.2
20260906002430 57 295 1.0 3.0 0.00 0.11 0.00 67 1025.2
20260906001938 58 295 1.0 3.0 0.00 0.11 0.00 66 1025.1
20260906001430 58 295 2.0 3.0 0.00 0.11 0.00 66 1025.1
20260906000929 58 302 2.0 3.0 0.00 0.11 0.00 65 1025.1
20260906000430 58 275 2.0 6.0 0.00 0.11 0.00 65 1025.2
20260905235930 58 287 2.0 6.0 0.00 0.11 0.00 65 1025.1
20260905235429 59 282 2.0 8.0 0.00 0.11 0.00 65 1025.0
20260905234930 59 333 3.0 8.0 0.00 0.11 0.00 64 1025.0
20260905234426 59 306 3.0 8.0 0.00 0.11 0.00 65 1024.9
20260905233926 59 307 4.0 8.0 0.00 0.11 0.00 65 1024.9
20260905233427 59 293 4.0 8.0 0.00 0.11 0.00 65 1024.9
20260905232927 59 311 4.0 10.0 0.00 0.11 0.00 65 1024.8
20260905232426 59 290 4.0 10.0 0.00 0.11 0.00 66 1024.8
20260905231926 58 290 4.0 10.0 0.00 0.11 0.00 66 1024.8
20260905231426 58 307 5.0 10.0 0.00 0.11 0.00 66 1024.9
20260905230926 58 317 4.0 10.0 0.00 0.11 0.00 66 1024.8
20260905230428 58 323 3.0 8.0 0.00 0.11 0.00 66 1024.8
20260905225927 58 301 4.0 8.0 0.00 0.11 0.00 67 1024.7
20260905225426 58 306 3.0 8.0 0.00 0.11 0.00 67 1024.7
20260905224927 58 303 3.0 7.0 0.00 0.11 0.00 66 1024.7
20260905224428 58 289 3.0 6.0 0.00 0.11 0.00 66 1024.7
20260905223927 58 279 2.0 6.0 0.00 0.11 0.00 66 1024.8
20260905223427 59 279 1.0 5.0 0.00 0.11 0.00 66 1024.8
20260905222926 59 272 1.0 5.0 0.00 0.11 0.00 66 1024.8
20260905222427 59 295 2.0 4.0 0.00 0.11 0.00 66 1024.7
20260905221925 59 296 2.0 5.0 0.00 0.11 0.00 66 1024.7
20260905221419 59 311 2.0 5.0 0.00 0.11 0.00 66 1024.7
20260905220910 60 283 2.0 4.0 0.00 0.11 0.00 65 1024.6
20260905220411 60 294 1.0 4.0 0.00 0.11 0.00 65 1024.6
20260905215910 60 267 1.0 5.0 0.00 0.11 0.11 65 1024.6
20260905215410 60 290 1.0 5.0 0.00 0.11 0.11 64 1024.5
20260905214907 61 274 2.0 4.0 0.00 0.11 0.11 64 1024.4
20260905214407 61 277 2.0 6.0 0.00 0.11 0.11 63 1024.4
20260905213903 61 263 2.0 6.0 0.00 0.11 0.11 63 1024.3
20260905213404 61 294 3.0 10.0 0.00 0.11 0.11 63 1024.2
20260905212904 61 301 5.0 11.0 0.00 0.11 0.11 63 1024.2
20260905212355 61 314 5.0 11.0 0.00 0.11 0.11 63 1024.2
20260905211856 61 298 4.0 8.0 0.00 0.11 0.11 64 1024.2
20260905211356 61 302 4.0 8.0 0.00 0.11 0.11 65 1024.2
20260905210856 61 314 4.0 8.0 0.00 0.11 0.11 65 1024.1
20260905210355 61 289 3.0 7.0 0.00 0.11 0.11 66 1024.0
20260905205854 61 297 3.0 7.0 0.00 0.11 0.11 67 1023.9
20260905205355 61 269 4.0 9.0 0.00 0.11 0.11 67 1023.9
20260905204853 61 315 4.0 9.0 0.00 0.11 0.11 67 1023.9
20260905204354 61 308 4.0 8.0 0.00 0.11 0.11 67 1023.9
20260905203850 61 313 3.0 8.0 0.00 0.11 0.11 67 1023.9
20260905203340 61 296 2.0 5.0 0.00 0.11 0.11 67 1023.7
20260905202837 62 281 3.0 6.0 0.00 0.11 0.11 67 1023.7
20260905202336 62 289 3.0 7.0 0.00 0.11 0.11 67 1023.5
20260905201837 62 312 2.0 7.0 0.00 0.11 0.11 67 1023.4
20260905201336 62 308 2.0 7.0 0.00 0.11 0.11 67 1023.4
20260905200840 62 276 2.0 6.0 0.00 0.11 0.11 67 1023.4
20260905200337 62 298 2.0 6.0 0.00 0.11 0.11 67 1023.3
20260905195832 62 263 2.0 7.0 0.00 0.11 0.11 67 1023.2
20260905195335 62 273 3.0 7.0 0.00 0.11 0.11 67 1023.2
20260905194833 62 260 3.0 7.0 0.00 0.11 0.11 66 1023.2
20260905194331 63 253 3.0 7.0 0.00 0.11 0.11 66 1023.0
20260905193833 63 243 3.0 6.0 0.00 0.11 0.11 66 1023.0